Location: Ab? ar R?sh Ba?r?
(24.1861°N, 32.8847°E)
Time: 00:00:37
(UTC+00:00)

Lacrosse 4 Rocket - Pass Details

Date: 24 October 2021
Orbit: 537 x 619 km, 68.0° (Epoch: 05 December)

Event Time Altitude Azimuth Distance (km) Brightness Sun altitude
Rises 17:34:59 0° 327° (NNW) 2,842 5.4 -32.6°
Reaches altitude 10° 17:37:19 10° 320° (NW) 1,949 4.5 -33.2°
Enters shadow 17:38:32 18° 312° (NW) 1,523 4.0 -33.4°
